owner,sensor,date,latitude,longitude,vertical_datum,sea_water_practical_salinity,qcFlag 
TABS,ioos:station:wmo:42050:1,2017-02-01T00:00:00Z,28.8425,-94.2433,2.0,0.0,11111222 
TABS,ioos:station:wmo:42050:1,2017-02-01T00:30:00Z,28.8425,-94.2433,2.0,0.0,11111222 
TABS,ioos:station:wmo:42050:1,2017-02-01T01:00:00Z,28.8425,-94.2433,2.0,0.0,11111222 
TABS,ioos:station:wmo:42050:1,2017-02-01T01:30:00Z,28.8425,-94.2433,2.0,0.0,11111222 
TABS,ioos:station:wmo:42050:1,2017-02-01T02:00:00Z,28.8425,-94.2433,2.0,0.0,11111222 
TABS,ioos:station:wmo:42050:1,2017-02-01T02:30:00Z,28.8425,-94.2433,2.0,0.0,11111222 
TABS,ioos:station:wmo:42050:1,2017-02-01T03:00:00Z,28.8425,-94.2433,2.0,0.0,11111222 
TABS,ioos:station:wmo:42050:1,2017-02-01T03:30:00Z,28.8425,-94.2433,2.0,0.0,11111222 
TABS,ioos:station:wmo:42050:1,2017-02-01T04:00:00Z,28.8425,-94.2433,2.0,0.0,11111222 
TABS,ioos:station:wmo:42050:1,2017-02-01T04:30:00Z,28.8425,-94.2433,2.0,0.0,11111222 
TABS,ioos:station:wmo:42050:1,2017-02-01T05:00:00Z,28.8425,-94.2433,2.0,0.0,11111222 
TABS,ioos:station:wmo:42050:1,2017-02-01T05:30:00Z,28.8425,-94.2433,2.0,0.0,11111222 
TABS,ioos:station:wmo:42050:1,2017-02-01T06:00:00Z,28.8425,-94.2433,2.0,0.0,11111222 
TABS,ioos:station:wmo:42050:1,2017-02-01T06:30:00Z,28.8425,-94.2433,2.0,0.0,11111222 
TABS,ioos:station:wmo:42050:1,2017-02-01T07:00:00Z,28.8425,-94.2433,2.0,0.0,11111222 
TABS,ioos:station:wmo:42050:1,2017-02-01T07:30:00Z,28.8425,-94.2433,2.0,0.0,11111222 
TABS,ioos:station:wmo:42050:1,2017-02-01T08:00:00Z,28.8425,-94.2433,2.0,0.0,11111222 
TABS,ioos:station:wmo:42050:1,2017-02-01T08:30:00Z,28.8425,-94.2433,2.0,0.0,11111222 
TABS,ioos:station:wmo:42050:1,2017-02-01T09:00:00Z,28.8425,-94.2433,2.0,0.0,11111222 
TABS,ioos:station:wmo:42050:1,2017-02-01T09:30:00Z,28.8425,-94.2433,2.0,0.0,11111222 
TABS,ioos:station:wmo:42050:1,2017-02-01T10:00:00Z,28.8425,-94.2433,2.0,0.0,11111222 
TABS,ioos:station:wmo:42050:1,2017-02-01T10:30:00Z,28.8425,-94.2433,2.0,0.0,11111222 
TABS,ioos:station:wmo:42050:1,2017-02-01T11:00:00Z,28.8425,-94.2433,2.0,0.0,11111222 
TABS,ioos:station:wmo:42050:1,2017-02-01T11:30:00Z,28.8425,-94.2433,2.0,0.0,11111222 
TABS,ioos:station:wmo:42050:1,2017-02-01T12:00:00Z,28.8425,-94.2433,2.0,0.0,11111222 
TABS,ioos:station:wmo:42050:1,2017-02-01T12:30:00Z,28.8425,-94.2433,2.0,0.0,11111222 
TABS,ioos:station:wmo:42050:1,2017-02-01T13:00:00Z,28.8425,-94.2433,2.0,0.0,11111222 
TABS,ioos:station:wmo:42050:1,2017-02-01T13:30:00Z,28.8425,-94.2433,2.0,0.0,11111222 
TABS,ioos:station:wmo:42050:1,2017-02-01T14:00:00Z,28.8425,-94.2433,2.0,0.0,11111222 
TABS,ioos:station:wmo:42050:1,2017-02-01T14:30:00Z,28.8425,-94.2433,2.0,0.0,11111222 
TABS,ioos:station:wmo:42050:1,2017-02-01T15:00:00Z,28.8425,-94.2433,2.0,0.012,11111222 
TABS,ioos:station:wmo:42050:1,2017-02-01T15:30:00Z,28.8425,-94.2433,2.0,0.0,11111222 
TABS,ioos:station:wmo:42050:1,2017-02-01T16:00:00Z,28.8425,-94.2433,2.0,0.0107,11111222 
TABS,ioos:station:wmo:42050:1,2017-02-01T16:30:00Z,28.8425,-94.2433,2.0,0.011,11111222 
TABS,ioos:station:wmo:42050:1,2017-02-01T17:00:00Z,28.8425,-94.2433,2.0,0.0111,11111222 
TABS,ioos:station:wmo:42050:1,2017-02-01T17:30:00Z,28.8425,-94.2433,2.0,0.0112,11111222 
TABS,ioos:station:wmo:42050:1,2017-02-01T18:00:00Z,28.8425,-94.2433,2.0,0.0109,11111222 
TABS,ioos:station:wmo:42050:1,2017-02-01T18:30:00Z,28.8425,-94.2433,2.0,0.0112,11111222 
TABS,ioos:station:wmo:42050:1,2017-02-01T19:00:00Z,28.8425,-94.2433,2.0,0.011,11111222 
TABS,ioos:station:wmo:42050:1,2017-02-01T19:30:00Z,28.8425,-94.2433,2.0,0.0114,11111222 
TABS,ioos:station:wmo:42050:1,2017-02-01T20:00:00Z,28.8425,-94.2433,2.0,0.0113,11111222 
TABS,ioos:station:wmo:42050:1,2017-02-01T20:30:00Z,28.8425,-94.2433,2.0,0.0115,11111222 
TABS,ioos:station:wmo:42050:1,2017-02-01T21:00:00Z,28.8425,-94.2433,2.0,0.0117,11111222 
TABS,ioos:station:wmo:42050:1,2017-02-01T21:30:00Z,28.8425,-94.2433,2.0,35.3095,11111222 
TABS,ioos:station:wmo:42050:1,2017-02-01T22:00:00Z,28.8425,-94.2433,2.0,35.349,11111222 
TABS,ioos:station:wmo:42050:1,2017-02-01T22:30:00Z,28.8425,-94.2433,2.0,35.3842,11111222 
TABS,ioos:station:wmo:42050:1,2017-02-01T23:00:00Z,28.8425,-94.2433,2.0,35.392,11111222 
TABS,ioos:station:wmo:42050:1,2017-02-01T23:30:00Z,28.8425,-94.2433,2.0,35.3843,11111222 
TABS,ioos:station:wmo:42050:1,2017-02-02T00:00:00Z,28.8425,-94.2433,2.0,35.4605,11111222 
TABS,ioos:station:wmo:42050:1,2017-02-02T00:30:00Z,28.8425,-94.2433,2.0,35.512,11111222 
TABS,ioos:station:wmo:42050:1,2017-02-02T01:00:00Z,28.8425,-94.2433,2.0,35.4896,11111222 
TABS,ioos:station:wmo:42050:1,2017-02-02T01:30:00Z,28.8425,-94.2433,2.0,35.5039,11111222 
TABS,ioos:station:wmo:42050:1,2017-02-02T02:00:00Z,28.8425,-94.2433,2.0,35.5454,11111222 
TABS,ioos:station:wmo:42050:1,2017-02-02T02:30:00Z,28.8425,-94.2433,2.0,35.6309,11111222 
TABS,ioos:station:wmo:42050:1,2017-02-02T03:00:00Z,28.8425,-94.2433,2.0,35.6523,11111222 
TABS,ioos:station:wmo:42050:1,2017-02-02T03:30:00Z,28.8425,-94.2433,2.0,35.6273,11111222 
TABS,ioos:station:wmo:42050:1,2017-02-02T04:00:00Z,28.8425,-94.2433,2.0,35.6054,11111222 
TABS,ioos:station:wmo:42050:1,2017-02-02T04:30:00Z,28.8425,-94.2433,2.0,35.6018,11111222 
TABS,ioos:station:wmo:42050:1,2017-02-02T05:00:00Z,28.8425,-94.2433,2.0,35.5929,11111222 
TABS,ioos:station:wmo:42050:1,2017-02-02T05:30:00Z,28.8425,-94.2433,2.0,35.6017,11111222 
TABS,ioos:station:wmo:42050:1,2017-02-02T06:00:00Z,28.8425,-94.2433,2.0,35.597,11111222 
TABS,ioos:station:wmo:42050:1,2017-02-02T06:30:00Z,28.8425,-94.2433,2.0,35.6101,11111222 
TABS,ioos:station:wmo:42050:1,2017-02-02T07:00:00Z,28.8425,-94.2433,2.0,35.6184,11111222 
TABS,ioos:station:wmo:42050:1,2017-02-02T07:30:00Z,28.8425,-94.2433,2.0,35.6135,11111222 
TABS,ioos:station:wmo:42050:1,2017-02-02T08:00:00Z,28.8425,-94.2433,2.0,35.6305,11111222 
TABS,ioos:station:wmo:42050:1,2017-02-02T08:30:00Z,28.8425,-94.2433,2.0,35.6341,11111222 
TABS,ioos:station:wmo:42050:1,2017-02-02T09:00:00Z,28.8425,-94.2433,2.0,35.6528,11111222 
TABS,ioos:station:wmo:42050:1,2017-02-02T09:30:00Z,28.8425,-94.2433,2.0,35.6513,11111222 
TABS,ioos:station:wmo:42050:1,2017-02-02T10:00:00Z,28.8425,-94.2433,2.0,35.6598,11111222 
TABS,ioos:station:wmo:42050:1,2017-02-02T10:30:00Z,28.8425,-94.2433,2.0,35.6712,11111222 
TABS,ioos:station:wmo:42050:1,2017-02-02T11:00:00Z,28.8425,-94.2433,2.0,35.6799,11111222 
TABS,ioos:station:wmo:42050:1,2017-02-02T11:30:00Z,28.8425,-94.2433,2.0,35.6821,11111222 
TABS,ioos:station:wmo:42050:1,2017-02-02T12:00:00Z,28.8425,-94.2433,2.0,35.6883,11111222 
TABS,ioos:station:wmo:42050:1,2017-02-02T12:30:00Z,28.8425,-94.2433,2.0,35.6881,11111222 
TABS,ioos:station:wmo:42050:1,2017-02-02T13:00:00Z,28.8425,-94.2433,2.0,35.6916,11111222 
TABS,ioos:station:wmo:42050:1,2017-02-02T13:30:00Z,28.8425,-94.2433,2.0,35.6904,11111222 
TABS,ioos:station:wmo:42050:1,2017-02-02T14:00:00Z,28.8425,-94.2433,2.0,35.6917,11111222 
TABS,ioos:station:wmo:42050:1,2017-02-02T14:30:00Z,28.8425,-94.2433,2.0,35.6907,11111222 
TABS,ioos:station:wmo:42050:1,2017-02-02T15:00:00Z,28.8425,-94.2433,2.0,35.6897,11111222 
TABS,ioos:station:wmo:42050:1,2017-02-02T15:30:00Z,28.8425,-94.2433,2.0,35.689,11111222 
TABS,ioos:station:wmo:42050:1,2017-02-02T16:00:00Z,28.8425,-94.2433,2.0,35.691,11111222 
TABS,ioos:station:wmo:42050:1,2017-02-02T16:30:00Z,28.8425,-94.2433,2.0,35.6912,11111222 
TABS,ioos:station:wmo:42050:1,2017-02-02T17:00:00Z,28.8425,-94.2433,2.0,35.6922,11111222 
TABS,ioos:station:wmo:42050:1,2017-02-02T17:30:00Z,28.8425,-94.2433,2.0,35.6902,11111222 
TABS,ioos:station:wmo:42050:1,2017-02-02T18:00:00Z,28.8425,-94.2433,2.0,35.6985,11111222 
TABS,ioos:station:wmo:42050:1,2017-02-02T18:30:00Z,28.8425,-94.2433,2.0,35.6865,11111222 
TABS,ioos:station:wmo:42050:1,2017-02-02T19:00:00Z,28.8425,-94.2433,2.0,35.6811,11111222 
TABS,ioos:station:wmo:42050:1,2017-02-02T19:30:00Z,28.8425,-94.2433,2.0,35.7144,11111222 
TABS,ioos:station:wmo:42050:1,2017-02-02T20:00:00Z,28.8425,-94.2433,2.0,35.704,11111222 
TABS,ioos:station:wmo:42050:1,2017-02-02T20:30:00Z,28.8425,-94.2433,2.0,35.678,11111222 
TABS,ioos:station:wmo:42050:1,2017-02-02T21:00:00Z,28.8425,-94.2433,2.0,35.6844,11111222 
TABS,ioos:station:wmo:42050:1,2017-02-02T21:30:00Z,28.8425,-94.2433,2.0,35.6825,11111222 
TABS,ioos:station:wmo:42050:1,2017-02-02T22:00:00Z,28.8425,-94.2433,2.0,35.6935,11111222 
TABS,ioos:station:wmo:42050:1,2017-02-02T22:30:00Z,28.8425,-94.2433,2.0,35.6887,11111222 
TABS,ioos:station:wmo:42050:1,2017-02-02T23:00:00Z,28.8425,-94.2433,2.0,35.701,11111222 
TABS,ioos:station:wmo:42050:1,2017-02-02T23:30:00Z,28.8425,-94.2433,2.0,35.7091,11111222 
TABS,ioos:station:wmo:42050:1,2017-02-03T00:00:00Z,28.8425,-94.2433,2.0,35.7093,11111222 
TABS,ioos:station:wmo:42050:1,2017-02-03T00:30:00Z,28.8425,-94.2433,2.0,35.7005,11111222 
TABS,ioos:station:wmo:42050:1,2017-02-03T01:00:00Z,28.8425,-94.2433,2.0,35.7005,11111222 
TABS,ioos:station:wmo:42050:1,2017-02-03T01:30:00Z,28.8425,-94.2433,2.0,35.6758,11111222 
TABS,ioos:station:wmo:42050:1,2017-02-03T02:00:00Z,28.8425,-94.2433,2.0,35.701,11111222 
TABS,ioos:station:wmo:42050:1,2017-02-03T02:30:00Z,28.8425,-94.2433,2.0,35.702,11111222 
TABS,ioos:station:wmo:42050:1,2017-02-03T03:00:00Z,28.8425,-94.2433,2.0,35.7005,11111222 
TABS,ioos:station:wmo:42050:1,2017-02-03T03:30:00Z,28.8425,-94.2433,2.0,35.7039,11111222 
TABS,ioos:station:wmo:42050:1,2017-02-03T04:00:00Z,28.8425,-94.2433,2.0,35.694,11111222 
TABS,ioos:station:wmo:42050:1,2017-02-03T04:30:00Z,28.8425,-94.2433,2.0,35.6563,11111222 
TABS,ioos:station:wmo:42050:1,2017-02-03T05:00:00Z,28.8425,-94.2433,2.0,35.5067,11111222 
TABS,ioos:station:wmo:42050:1,2017-02-03T05:30:00Z,28.8425,-94.2433,2.0,35.4302,11111222 
TABS,ioos:station:wmo:42050:1,2017-02-03T06:00:00Z,28.8425,-94.2433,2.0,35.3248,11111222 
TABS,ioos:station:wmo:42050:1,2017-02-03T06:30:00Z,28.8425,-94.2433,2.0,35.1799,11111222 
TABS,ioos:station:wmo:42050:1,2017-02-03T07:00:00Z,28.8425,-94.2433,2.0,34.9417,11111222 
TABS,ioos:station:wmo:42050:1,2017-02-03T07:30:00Z,28.8425,-94.2433,2.0,34.8434,11111222 
TABS,ioos:station:wmo:42050:1,2017-02-03T08:00:00Z,28.8425,-94.2433,2.0,34.732,11111222 
TABS,ioos:station:wmo:42050:1,2017-02-03T08:30:00Z,28.8425,-94.2433,2.0,34.7071,11111222 
TABS,ioos:station:wmo:42050:1,2017-02-03T09:00:00Z,28.8425,-94.2433,2.0,34.7283,11111222 
TABS,ioos:station:wmo:42050:1,2017-02-03T09:30:00Z,28.8425,-94.2433,2.0,34.7143,11111222 
TABS,ioos:station:wmo:42050:1,2017-02-03T10:00:00Z,28.8425,-94.2433,2.0,34.7115,11111222 
TABS,ioos:station:wmo:42050:1,2017-02-03T10:30:00Z,28.8425,-94.2433,2.0,34.6465,11111222 
TABS,ioos:station:wmo:42050:1,2017-02-03T11:00:00Z,28.8425,-94.2433,2.0,34.6209,11111222 
TABS,ioos:station:wmo:42050:1,2017-02-03T11:30:00Z,28.8425,-94.2433,2.0,34.6185,11111222 
TABS,ioos:station:wmo:42050:1,2017-02-03T12:00:00Z,28.8425,-94.2433,2.0,34.6518,11111222 
TABS,ioos:station:wmo:42050:1,2017-02-03T12:30:00Z,28.8425,-94.2433,2.0,34.6334,11111222 
TABS,ioos:station:wmo:42050:1,2017-02-03T13:00:00Z,28.8425,-94.2433,2.0,34.6896,11111222 
TABS,ioos:station:wmo:42050:1,2017-02-03T13:30:00Z,28.8425,-94.2433,2.0,34.683,11111222 
TABS,ioos:station:wmo:42050:1,2017-02-03T14:00:00Z,28.8425,-94.2433,2.0,34.7608,11111222 
TABS,ioos:station:wmo:42050:1,2017-02-03T14:30:00Z,28.8425,-94.2433,2.0,34.8314,11111222 
TABS,ioos:station:wmo:42050:1,2017-02-03T15:00:00Z,28.8425,-94.2433,2.0,34.8442,11111222 
TABS,ioos:station:wmo:42050:1,2017-02-03T15:30:00Z,28.8425,-94.2433,2.0,34.866,11111222 
TABS,ioos:station:wmo:42050:1,2017-02-03T16:00:00Z,28.8425,-94.2433,2.0,34.9216,11111222 
TABS,ioos:station:wmo:42050:1,2017-02-03T16:30:00Z,28.8425,-94.2433,2.0,34.9512,11111222 
TABS,ioos:station:wmo:42050:1,2017-02-03T17:00:00Z,28.8425,-94.2433,2.0,35.002,11111222 
TABS,ioos:station:wmo:42050:1,2017-02-03T17:30:00Z,28.8425,-94.2433,2.0,35.0297,11111222 
TABS,ioos:station:wmo:42050:1,2017-02-03T18:00:00Z,28.8425,-94.2433,2.0,35.0331,11111222 
TABS,ioos:station:wmo:42050:1,2017-02-03T18:30:00Z,28.8425,-94.2433,2.0,35.0559,11111222 
TABS,ioos:station:wmo:42050:1,2017-02-03T19:00:00Z,28.8425,-94.2433,2.0,35.0889,11111222 
TABS,ioos:station:wmo:42050:1,2017-02-03T19:30:00Z,28.8425,-94.2433,2.0,35.1261,11111222 
TABS,ioos:station:wmo:42050:1,2017-02-03T20:00:00Z,28.8425,-94.2433,2.0,35.148,11111222 
TABS,ioos:station:wmo:42050:1,2017-02-03T20:30:00Z,28.8425,-94.2433,2.0,35.1809,11111222 
TABS,ioos:station:wmo:42050:1,2017-02-03T21:00:00Z,28.8425,-94.2433,2.0,35.1905,11111222 
TABS,ioos:station:wmo:42050:1,2017-02-03T21:30:00Z,28.8425,-94.2433,2.0,35.1962,11111222 
TABS,ioos:station:wmo:42050:1,2017-02-03T22:00:00Z,28.8425,-94.2433,2.0,35.2087,11111222 
TABS,ioos:station:wmo:42050:1,2017-02-03T22:30:00Z,28.8425,-94.2433,2.0,35.2278,11111222 
TABS,ioos:station:wmo:42050:1,2017-02-03T23:00:00Z,28.8425,-94.2433,2.0,35.2143,11111222 
TABS,ioos:station:wmo:42050:1,2017-02-03T23:30:00Z,28.8425,-94.2433,2.0,35.2344,11111222 
TABS,ioos:station:wmo:42050:1,2017-02-05T21:30:00Z,28.8425,-94.2433,2.0,34.9307,11111222 
TABS,ioos:station:wmo:42050:1,2017-02-05T22:00:00Z,28.8425,-94.2433,2.0,34.9969,11111222 
TABS,ioos:station:wmo:42050:1,2017-02-05T22:30:00Z,28.8425,-94.2433,2.0,34.9879,11111222 
TABS,ioos:station:wmo:42050:1,2017-02-05T23:00:00Z,28.8425,-94.2433,2.0,35.0345,11111222 
TABS,ioos:station:wmo:42050:1,2017-02-05T23:30:00Z,28.8425,-94.2433,2.0,34.9178,11111222 
TABS,ioos:station:wmo:42050:1,2017-02-06T00:00:00Z,28.8425,-94.2433,2.0,34.8637,11111222 
TABS,ioos:station:wmo:42050:1,2017-02-06T00:30:00Z,28.8425,-94.2433,2.0,34.8716,11111222 
TABS,ioos:station:wmo:42050:1,2017-02-06T01:00:00Z,28.8425,-94.2433,2.0,34.8679,11111222 
TABS,ioos:station:wmo:42050:1,2017-02-06T01:30:00Z,28.8425,-94.2433,2.0,34.8639,11111222 
TABS,ioos:station:wmo:42050:1,2017-02-06T02:00:00Z,28.8425,-94.2433,2.0,34.8558,11111222 
TABS,ioos:station:wmo:42050:1,2017-02-06T02:30:00Z,28.8425,-94.2433,2.0,34.8436,11111222 
TABS,ioos:station:wmo:42050:1,2017-02-06T03:00:00Z,28.8425,-94.2433,2.0,34.8447,11111222 
TABS,ioos:station:wmo:42050:1,2017-02-06T03:30:00Z,28.8425,-94.2433,2.0,34.8353,11111222 
TABS,ioos:station:wmo:42050:1,2017-02-06T04:00:00Z,28.8425,-94.2433,2.0,34.8302,11111222 
TABS,ioos:station:wmo:42050:1,2017-02-06T04:30:00Z,28.8425,-94.2433,2.0,34.8351,11111222 
TABS,ioos:station:wmo:42050:1,2017-02-06T05:00:00Z,28.8425,-94.2433,2.0,34.8272,11111222 
TABS,ioos:station:wmo:42050:1,2017-02-06T05:30:00Z,28.8425,-94.2433,2.0,34.8247,11111222 
TABS,ioos:station:wmo:42050:1,2017-02-06T06:00:00Z,28.8425,-94.2433,2.0,34.8245,11111222 
TABS,ioos:station:wmo:42050:1,2017-02-06T06:30:00Z,28.8425,-94.2433,2.0,34.8094,11111222 
TABS,ioos:station:wmo:42050:1,2017-02-06T07:00:00Z,28.8425,-94.2433,2.0,34.7984,11111222 
TABS,ioos:station:wmo:42050:1,2017-02-06T07:30:00Z,28.8425,-94.2433,2.0,34.8009,11111222 
TABS,ioos:station:wmo:42050:1,2017-02-06T08:00:00Z,28.8425,-94.2433,2.0,34.8071,11111222 
TABS,ioos:station:wmo:42050:1,2017-02-06T08:30:00Z,28.8425,-94.2433,2.0,34.8114,11111222 
TABS,ioos:station:wmo:42050:1,2017-02-06T09:00:00Z,28.8425,-94.2433,2.0,34.8229,11111222 
TABS,ioos:station:wmo:42050:1,2017-02-06T09:30:00Z,28.8425,-94.2433,2.0,34.8366,11111222 
TABS,ioos:station:wmo:42050:1,2017-02-06T10:00:00Z,28.8425,-94.2433,2.0,34.8505,11111222 
TABS,ioos:station:wmo:42050:1,2017-02-06T10:30:00Z,28.8425,-94.2433,2.0,34.8804,11111222 
TABS,ioos:station:wmo:42050:1,2017-02-06T11:00:00Z,28.8425,-94.2433,2.0,35.0049,11111222 
TABS,ioos:station:wmo:42050:1,2017-02-06T11:30:00Z,28.8425,-94.2433,2.0,35.0181,11111222 
TABS,ioos:station:wmo:42050:1,2017-02-06T12:00:00Z,28.8425,-94.2433,2.0,35.0151,11111222 
TABS,ioos:station:wmo:42050:1,2017-02-06T12:30:00Z,28.8425,-94.2433,2.0,35.0395,11111222 
TABS,ioos:station:wmo:42050:1,2017-02-06T13:00:00Z,28.8425,-94.2433,2.0,35.0509,11111222 
TABS,ioos:station:wmo:42050:1,2017-02-06T13:30:00Z,28.8425,-94.2433,2.0,35.0705,11111222 
TABS,ioos:station:wmo:42050:1,2017-02-06T14:00:00Z,28.8425,-94.2433,2.0,35.0726,11111222 
TABS,ioos:station:wmo:42050:1,2017-02-06T14:30:00Z,28.8425,-94.2433,2.0,35.0803,11111222 
TABS,ioos:station:wmo:42050:1,2017-02-06T15:00:00Z,28.8425,-94.2433,2.0,35.0934,11111222 
TABS,ioos:station:wmo:42050:1,2017-02-06T15:30:00Z,28.8425,-94.2433,2.0,35.1074,11111222 
TABS,ioos:station:wmo:42050:1,2017-02-06T16:00:00Z,28.8425,-94.2433,2.0,35.1123,11111222 
TABS,ioos:station:wmo:42050:1,2017-02-06T16:30:00Z,28.8425,-94.2433,2.0,35.1229,11111222 
TABS,ioos:station:wmo:42050:1,2017-02-06T17:00:00Z,28.8425,-94.2433,2.0,35.127,11111222 
TABS,ioos:station:wmo:42050:1,2017-02-06T17:30:00Z,28.8425,-94.2433,2.0,35.1297,11111222 
TABS,ioos:station:wmo:42050:1,2017-02-06T18:00:00Z,28.8425,-94.2433,2.0,35.1367,11111222 
TABS,ioos:station:wmo:42050:1,2017-02-06T18:30:00Z,28.8425,-94.2433,2.0,35.132,11111222 
TABS,ioos:station:wmo:42050:1,2017-02-06T19:00:00Z,28.8425,-94.2433,2.0,35.1269,11111222 
TABS,ioos:station:wmo:42050:1,2017-02-06T19:30:00Z,28.8425,-94.2433,2.0,35.1214,11111222 
TABS,ioos:station:wmo:42050:1,2017-02-06T20:00:00Z,28.8425,-94.2433,2.0,35.1179,11111222 
TABS,ioos:station:wmo:42050:1,2017-02-06T20:30:00Z,28.8425,-94.2433,2.0,35.1066,11111222 
TABS,ioos:station:wmo:42050:1,2017-02-06T21:00:00Z,28.8425,-94.2433,2.0,35.1001,11111222 
TABS,ioos:station:wmo:42050:1,2017-02-06T21:30:00Z,28.8425,-94.2433,2.0,35.0804,11111222 
TABS,ioos:station:wmo:42050:1,2017-02-06T22:00:00Z,28.8425,-94.2433,2.0,35.0545,11111222 
TABS,ioos:station:wmo:42050:1,2017-02-06T22:30:00Z,28.8425,-94.2433,2.0,35.0599,11111222 
TABS,ioos:station:wmo:42050:1,2017-02-06T23:00:00Z,28.8425,-94.2433,2.0,35.0367,11111222 
TABS,ioos:station:wmo:42050:1,2017-02-06T23:30:00Z,28.8425,-94.2433,2.0,35.0526,11111222 
TABS,ioos:station:wmo:42050:1,2017-02-07T00:00:00Z,28.8425,-94.2433,2.0,35.0535,11111222 
TABS,ioos:station:wmo:42050:1,2017-02-07T00:30:00Z,28.8425,-94.2433,2.0,35.0141,11111222 
TABS,ioos:station:wmo:42050:1,2017-02-07T01:00:00Z,28.8425,-94.2433,2.0,35.0067,11111222 
TABS,ioos:station:wmo:42050:1,2017-02-07T01:30:00Z,28.8425,-94.2433,2.0,35.0023,11111222 
TABS,ioos:station:wmo:42050:1,2017-02-07T02:00:00Z,28.8425,-94.2433,2.0,34.993,11111222 
TABS,ioos:station:wmo:42050:1,2017-02-07T02:30:00Z,28.8425,-94.2433,2.0,34.9849,11111222 
TABS,ioos:station:wmo:42050:1,2017-02-07T03:00:00Z,28.8425,-94.2433,2.0,34.971,11111222 
TABS,ioos:station:wmo:42050:1,2017-02-07T03:30:00Z,28.8425,-94.2433,2.0,34.9538,11111222 
TABS,ioos:station:wmo:42050:1,2017-02-07T04:00:00Z,28.8425,-94.2433,2.0,34.9384,11111222 
TABS,ioos:station:wmo:42050:1,2017-02-07T04:30:00Z,28.8425,-94.2433,2.0,34.8987,11111222 
TABS,ioos:station:wmo:42050:1,2017-02-07T05:00:00Z,28.8425,-94.2433,2.0,34.8767,11111222 
TABS,ioos:station:wmo:42050:1,2017-02-07T05:30:00Z,28.8425,-94.2433,2.0,34.8411,11111222 
TABS,ioos:station:wmo:42050:1,2017-02-07T06:00:00Z,28.8425,-94.2433,2.0,34.8328,11111222 
TABS,ioos:station:wmo:42050:1,2017-02-07T06:30:00Z,28.8425,-94.2433,2.0,34.8157,11111222 
TABS,ioos:station:wmo:42050:1,2017-02-07T07:00:00Z,28.8425,-94.2433,2.0,34.8207,11111222 
TABS,ioos:station:wmo:42050:1,2017-02-07T07:30:00Z,28.8425,-94.2433,2.0,34.7938,11111222 
TABS,ioos:station:wmo:42050:1,2017-02-07T08:00:00Z,28.8425,-94.2433,2.0,34.7877,11111222 
TABS,ioos:station:wmo:42050:1,2017-02-07T08:30:00Z,28.8425,-94.2433,2.0,34.7127,11111222 
TABS,ioos:station:wmo:42050:1,2017-02-07T09:00:00Z,28.8425,-94.2433,2.0,34.6654,11111222 
TABS,ioos:station:wmo:42050:1,2017-02-07T09:30:00Z,28.8425,-94.2433,2.0,34.6448,11111222 
TABS,ioos:station:wmo:42050:1,2017-02-07T10:00:00Z,28.8425,-94.2433,2.0,34.6848,11111222 
TABS,ioos:station:wmo:42050:1,2017-02-07T10:30:00Z,28.8425,-94.2433,2.0,34.7363,11111222 
TABS,ioos:station:wmo:42050:1,2017-02-07T11:00:00Z,28.8425,-94.2433,2.0,34.728,11111222 
TABS,ioos:station:wmo:42050:1,2017-02-07T11:30:00Z,28.8425,-94.2433,2.0,34.7467,11111222 
TABS,ioos:station:wmo:42050:1,2017-02-07T12:00:00Z,28.8425,-94.2433,2.0,34.7038,11111222 
TABS,ioos:station:wmo:42050:1,2017-02-07T12:30:00Z,28.8425,-94.2433,2.0,34.7128,11111222 
TABS,ioos:station:wmo:42050:1,2017-02-07T13:00:00Z,28.8425,-94.2433,2.0,34.7261,11111222 
TABS,ioos:station:wmo:42050:1,2017-02-07T13:30:00Z,28.8425,-94.2433,2.0,34.7406,11111222 
TABS,ioos:station:wmo:42050:1,2017-02-07T14:00:00Z,28.8425,-94.2433,2.0,34.7405,11111222 
TABS,ioos:station:wmo:42050:1,2017-02-07T14:30:00Z,28.8425,-94.2433,2.0,34.7559,11111222 
TABS,ioos:station:wmo:42050:1,2017-02-07T15:00:00Z,28.8425,-94.2433,2.0,34.7587,11111222 
TABS,ioos:station:wmo:42050:1,2017-02-07T15:30:00Z,28.8425,-94.2433,2.0,34.7829,11111222 
TABS,ioos:station:wmo:42050:1,2017-02-07T16:00:00Z,28.8425,-94.2433,2.0,34.8191,11111222 
TABS,ioos:station:wmo:42050:1,2017-02-07T16:30:00Z,28.8425,-94.2433,2.0,34.8004,11111222 
TABS,ioos:station:wmo:42050:1,2017-02-07T17:00:00Z,28.8425,-94.2433,2.0,34.8367,11111222 
TABS,ioos:station:wmo:42050:1,2017-02-07T17:30:00Z,28.8425,-94.2433,2.0,34.836,11111222 
TABS,ioos:station:wmo:42050:1,2017-02-07T18:00:00Z,28.8425,-94.2433,2.0,34.8351,11111222 
TABS,ioos:station:wmo:42050:1,2017-02-07T18:30:00Z,28.8425,-94.2433,2.0,34.7172,11111222 
TABS,ioos:station:wmo:42050:1,2017-02-07T19:00:00Z,28.8425,-94.2433,2.0,34.7912,11111222 
TABS,ioos:station:wmo:42050:1,2017-02-07T19:30:00Z,28.8425,-94.2433,2.0,34.8023,11111222 
TABS,ioos:station:wmo:42050:1,2017-02-07T20:00:00Z,28.8425,-94.2433,2.0,34.8778,11111222 
TABS,ioos:station:wmo:42050:1,2017-02-07T20:30:00Z,28.8425,-94.2433,2.0,34.8972,11111222 
TABS,ioos:station:wmo:42050:1,2017-02-07T21:00:00Z,28.8425,-94.2433,2.0,34.8617,11111222 
TABS,ioos:station:wmo:42050:1,2017-02-07T21:30:00Z,28.8425,-94.2433,2.0,34.785,11111222 
TABS,ioos:station:wmo:42050:1,2017-02-07T22:00:00Z,28.8425,-94.2433,2.0,34.725,11111222 
TABS,ioos:station:wmo:42050:1,2017-02-07T22:30:00Z,28.8425,-94.2433,2.0,34.8661,11111222 
TABS,ioos:station:wmo:42050:1,2017-02-07T23:00:00Z,28.8425,-94.2433,2.0,34.8574,11111222 
TABS,ioos:station:wmo:42050:1,2017-02-07T23:30:00Z,28.8425,-94.2433,2.0,34.9826,11111222 
TABS,ioos:station:wmo:42050:1,2017-02-08T00:00:00Z,28.8425,-94.2433,2.0,35.0015,11111222 
TABS,ioos:station:wmo:42050:1,2017-02-08T00:30:00Z,28.8425,-94.2433,2.0,34.9825,11111222 
TABS,ioos:station:wmo:42050:1,2017-02-08T01:00:00Z,28.8425,-94.2433,2.0,35.072,11111222 
TABS,ioos:station:wmo:42050:1,2017-02-08T01:30:00Z,28.8425,-94.2433,2.0,35.0605,11111222 
TABS,ioos:station:wmo:42050:1,2017-02-08T02:00:00Z,28.8425,-94.2433,2.0,35.0862,11111222 
TABS,ioos:station:wmo:42050:1,2017-02-08T02:30:00Z,28.8425,-94.2433,2.0,35.067,11111222 
TABS,ioos:station:wmo:42050:1,2017-02-08T03:00:00Z,28.8425,-94.2433,2.0,35.0803,11111222 
TABS,ioos:station:wmo:42050:1,2017-02-08T03:30:00Z,28.8425,-94.2433,2.0,35.0915,11111222 
TABS,ioos:station:wmo:42050:1,2017-02-08T04:00:00Z,28.8425,-94.2433,2.0,35.0495,11111222 
TABS,ioos:station:wmo:42050:1,2017-02-08T04:30:00Z,28.8425,-94.2433,2.0,35.2508,11111222 
TABS,ioos:station:wmo:42050:1,2017-02-08T05:00:00Z,28.8425,-94.2433,2.0,34.8503,11111222 
TABS,ioos:station:wmo:42050:1,2017-02-08T05:30:00Z,28.8425,-94.2433,2.0,34.9967,11111222 
TABS,ioos:station:wmo:42050:1,2017-02-08T06:00:00Z,28.8425,-94.2433,2.0,34.8458,11111222 
TABS,ioos:station:wmo:42050:1,2017-02-08T06:30:00Z,28.8425,-94.2433,2.0,34.9398,11111222 
TABS,ioos:station:wmo:42050:1,2017-02-08T07:00:00Z,28.8425,-94.2433,2.0,34.8819,11111222 
TABS,ioos:station:wmo:42050:1,2017-02-08T07:30:00Z,28.8425,-94.2433,2.0,34.8576,11111222 
TABS,ioos:station:wmo:42050:1,2017-02-08T08:00:00Z,28.8425,-94.2433,2.0,34.8442,11111222 
TABS,ioos:station:wmo:42050:1,2017-02-08T08:30:00Z,28.8425,-94.2433,2.0,34.8957,11111222 
TABS,ioos:station:wmo:42050:1,2017-02-08T09:00:00Z,28.8425,-94.2433,2.0,34.7807,11111222 
TABS,ioos:station:wmo:42050:1,2017-02-08T09:30:00Z,28.8425,-94.2433,2.0,34.8118,11111222 
TABS,ioos:station:wmo:42050:1,2017-02-08T10:00:00Z,28.8425,-94.2433,2.0,34.8463,11111222 
TABS,ioos:station:wmo:42050:1,2017-02-08T10:30:00Z,28.8425,-94.2433,2.0,34.8769,11111222 